Wooster, OH

7:21 AM EDT on April 20, 2018 (GMT -0400)
Wayne County

Weather History for KBJJ - March, 2013

Change the Weather History Date:

Wednesday, March 6, 2013

  Actual Average Record
Temperature  
Mean Temperature 36 °F -  
Max Temperature 41 °F 38 °F 71 °F (2009)
Min Temperature 28 °F 22 °F -6 °F (2015)
Degree Days  
Heating Degree Days 30    
Moisture  
Dew Point 28 °F    
Average Humidity 83    
Maximum Humidity 93    
Minimum Humidity 60    
Precipitation  
Precipitation 0.05 in - - ()
Sea Level Pressure  
Sea Level Pressure 29.88 in    
Wind  
Wind Speed 13 mph (NE)    
Max Wind Speed 22 mph    
Max Gust Speed 26 mph    
Visibility 6 miles    
Events Snow    
Averages and records for this station are not official NWS values.
T = Trace of Precipitation, MM = Missing Value Source: NWS Daily Summary

Daily Weather History Graph

Daily Weather History Graph

Search for Another Location

Airport or City:

Astronomy

Mar. 06, 2013 Rise Set
Actual Time 6:53 AM EST 6:24 PM EST
Civil Twilight 6:26 AM EST 6:52 PM EST
Nautical Twilight 5:54 AM EST 7:23 PM EST
Astronomical Twilight 5:22 AM EST 7:55 PM EST
Moon 3:03 AM EST (3/6) 1:03 PM EST (3/6)
Length of Visible Light 12h 26m
Length of Day
11h 31m
Waning Crescent, 30% of the Moon is Illuminated
Mar 6
Waning Crescent
Mar 11
New
Mar 19
First Quarter
Mar 27
Full
Apr 3
Last Quarter

Hourly Weather History & Observations

Time (EST) Temp. Windchill Dew Point Humidity Pressure Visibility Wind Dir Wind Speed Gust Speed Precip Events Conditions
12:37 AM 33.8 °F 21.9 °F 24.8 °F 70% 29.63 in 3.0 mi East 21.9 mph - 0.00 in Snow Light Snow
12:45 AM 33.8 °F 23.9 °F 26.6 °F 75% 29.63 in 2.0 mi ESE 15.0 mph 26.5 mph 0.00 in Snow Light Snow
12:54 AM 32.0 °F 22.1 °F 26.6 °F 80% 29.63 in 1.2 mi East 13.8 mph - 0.00 in Snow Light Snow
12:56 AM 32.0 °F 22.5 °F 28.0 °F 85% 29.66 in 1.2 mi East 12.7 mph - 0.00 in Snow Light Snow
1:05 AM 32.0 °F 23.6 °F 28.4 °F 87% 29.63 in 1.0 mi East 10.4 mph - 0.00 in Snow Light Snow
1:14 AM 32.0 °F 22.5 °F 28.4 °F 87% 29.64 in 1.2 mi East 12.7 mph - 0.00 in Snow Light Snow
1:19 AM 30.2 °F 20.2 °F 28.4 °F 93% 29.64 in 1.0 mi East 12.7 mph - 0.00 in Snow Light Snow
1:39 AM 30.2 °F 21.3 °F 28.4 °F 93% 29.65 in 1.0 mi East 10.4 mph - 0.02 in Snow Light Snow
1:56 AM 30.9 °F 22.8 °F 28.9 °F 92% 29.68 in 1.0 mi ENE 9.2 mph - 0.03 in Snow Light Snow
2:56 AM 30.9 °F 20.2 °F 28.9 °F 92% 29.68 in 0.8 mi ENE 15.0 mph - 0.02 in Snow Light Snow
3:07 AM 30.2 °F 18.9 °F 28.4 °F 93% 29.66 in 1.0 mi ENE 16.1 mph - 0.00 in Snow Light Snow
3:16 AM 30.2 °F 18.9 °F 28.4 °F 93% 29.66 in 1.2 mi ENE 16.1 mph - 0.00 in Snow Light Snow
3:23 AM 30.2 °F 18.9 °F 28.4 °F 93% 29.66 in 1.2 mi ENE 16.1 mph - 0.00 in Snow Light Snow
3:40 AM 30.2 °F 19.3 °F 28.4 °F 93% 29.67 in 2.0 mi ENE 15.0 mph - 0.00 in Snow Light Snow
3:53 AM 30.2 °F 19.8 °F 28.4 °F 93% 29.68 in 3.0 mi ENE 13.8 mph - 0.00 in Snow Light Snow
3:56 AM 30.9 °F 19.8 °F 28.9 °F 92% 29.70 in 3.0 mi ENE 16.1 mph - 0.00 in Snow Light Snow
4:04 AM 30.2 °F 19.8 °F 28.4 °F 93% 29.68 in 4.0 mi ENE 13.8 mph - 0.00 in Snow Light Snow
4:56 AM 32.0 °F 20.8 °F 28.9 °F 88% 29.75 in 6.0 mi ENE 17.3 mph - 0.00 in   Overcast
5:56 AM 32.0 °F 22.1 °F 28.9 °F 88% 29.79 in 7.0 mi East 13.8 mph 21.9 mph N/A   Overcast
6:30 AM 33.8 °F 24.3 °F 28.4 °F 81% 29.79 in 8.0 mi ENE 13.8 mph - N/A   Overcast
6:56 AM 33.1 °F 23.9 °F 28.9 °F 85% 29.83 in 8.0 mi ENE 12.7 mph - N/A   Overcast
7:56 AM 33.1 °F 24.9 °F 28.9 °F 85% 29.88 in 7.0 mi ENE 10.4 mph - N/A   Overcast
9:56 AM 35.1 °F 28.6 °F 30.0 °F 82% 29.97 in 7.0 mi ENE 8.1 mph - N/A   Overcast
10:56 AM 37.0 °F 31.0 °F 30.0 °F 76% 30.00 in 10.0 mi ENE 8.1 mph - N/A   Mostly Cloudy
11:56 AM 37.9 °F 35.5 °F 28.9 °F 70% 30.02 in 10.0 mi ENE 3.5 mph - N/A   Scattered Clouds
12:40 PM 37.4 °F 32.1 °F 28.4 °F 70% 30.00 in 10.0 mi NNE 6.9 mph - N/A   Overcast
12:56 PM 37.9 °F 33.5 °F 28.0 °F 68% 30.04 in 10.0 mi North 5.8 mph - N/A   Overcast
1:22 PM 39.2 °F 34.2 °F 28.4 °F 65% 30.01 in 10.0 mi North 6.9 mph - N/A   Overcast
1:56 PM 41.0 °F 37.1 °F 28.9 °F 62% 30.04 in 10.0 mi Variable 5.8 mph - N/A   Overcast
2:56 PM 41.0 °F 36.4 °F 28.0 °F 60% 30.05 in 10.0 mi North 6.9 mph - N/A   Overcast
3:56 PM 39.9 °F 33.9 °F 30.0 °F 68% 30.07 in 10.0 mi NW 9.2 mph - N/A   Overcast
4:56 PM 39.0 °F 33.4 °F 30.0 °F 70% 30.07 in 10.0 mi NNW 8.1 mph - N/A   Overcast
5:56 PM 37.9 °F 30.9 °F 28.9 °F 70% 30.10 in 10.0 mi North 10.4 mph - N/A   Overcast
6:56 PM 36.0 °F 29.6 °F 27.0 °F 70% 30.13 in 10.0 mi NNW 8.1 mph - N/A   Overcast
7:56 PM 34.0 °F 26.0 °F 27.0 °F 75% 30.15 in 10.0 mi NNW 10.4 mph - N/A   Overcast
8:56 PM 30.9 °F 24.3 °F 27.0 °F 85% 30.17 in 10.0 mi NNW 6.9 mph - N/A   Clear
9:56 PM 30.0 °F 21.1 °F 27.0 °F 88% 30.18 in 9.0 mi NNW 10.4 mph - N/A   Clear
10:37 PM 30.2 °F 21.3 °F 28.4 °F 93% 30.15 in 6.0 mi NNW 10.4 mph - N/A   Partly Cloudy
10:53 PM 30.2 °F 21.3 °F 28.4 °F 93% 30.16 in 6.0 mi NNW 10.4 mph - N/A   Mostly Cloudy
10:56 PM 30.0 °F 21.1 °F 28.0 °F 92% 30.19 in 6.0 mi NNW 10.4 mph - N/A   Mostly Cloudy
11:10 PM 30.2 °F 21.9 °F 28.4 °F 93% 30.16 in 6.0 mi NNW 9.2 mph - N/A   Scattered Clouds
11:56 PM 28.9 °F 22.8 °F 27.0 °F 92% 30.19 in 6.0 mi NNW 5.8 mph - N/A   Clear